Regional Weather Roundup
Issued by NWS

Current Version | Previous Version | Text Only | Print | Product List | Glossary On
Versions: 1 2 3 4 5 6 7 8 9 10 11 12 13 14 15 16 17 18 19 20 21 22 23 24 25 26 27 28 29 30 31 32 33 34 35 36 37 38 39 40 41 42 43 44 45 46 47 48 49 50
000
ASUS43 KFSD 062210
RWRSD

WEATHER ROUNDUP FOR SOUTH DAKOTA
NATIONAL WEATHER SERVICE SIOUX FALLS SD
400 PM CST FRI MAR 06 2015

NOTE: "FAIR" INDICATES FEW OR NO CLOUDS BELOW 12,000 FEET WITH NO
SIGNIFICANT WEATHER AND/OR OBSTRUCTIONS TO VISIBILITY.


SDZ001>005-009-010-012>017-062300-
NORTHWEST AND NORTH CENTRAL SOUTH DAKOTA

CITY           SKY/WX    TMP DP  RH WIND       PRES   REMARKS
BUFFALO          N/A     57  19  22 NW25G37   29.97S
FAITH            N/A     58  16  19 NW26G33   30.01S
MOBRIDGE       MOSUNNY   50  22  33 SW5       29.99F
$$

SDZ012>016-024>037-041>051-057-063-072>074-062300-
SOUTHWEST AND SOUTH CENTRAL SOUTH DAKOTA

CITY           SKY/WX    TMP DP  RH WIND       PRES   REMARKS
RAPID CTY ARPT MOSUNNY   57  20  23 N20       30.07F
PIERRE         CLOUDY    53  24  32 E9        30.04F
CUSTER         SUNNY     46  17  31 NW18G28   30.11F
ELLSWORTH AFB  MOSUNNY   56  22  26 N21G28    30.06F
PHILIP         SUNNY     59  15  18 W20G28    30.05S
PINE RIDGE     PTSUNNY   54  23  30 W20G30    30.12F
SPEARFISH      FAIR      50  23  34 W16G25    30.10S
WINNER         FAIR      57  20  23 W15       30.08F
$$

SDZ004>011-016>023-039-040-062300-
NORTHEAST SOUTH DAKOTA

CITY           SKY/WX    TMP DP  RH WIND       PRES   REMARKS
ABERDEEN       PTSUNNY   41  21  44 W8        30.08F
WATERTOWN      SUNNY     35  21  56 W7        30.07F WCI  29
SISSETON         N/A     37  21  52 NW9       30.06F
$$

SDZ017-020-022-023-036>040-048>070-062300-
SOUTHEAST SOUTH DAKOTA

CITY           SKY/WX    TMP DP  RH WIND       PRES   REMARKS
SIOUX FALLS    PTSUNNY   45  23  42 NW9       30.10S
HURON          SUNNY     43  22  43 CALM      30.11S
CHAMBERLAIN    SUNNY     53  22  30 W9        30.08S
MITCHELL       MOSUNNY   49  20  31 VRB5      30.10F
YANKTON        MOSUNNY   54  19  26 NW9       30.11F
$$

ABBREVIATIONS USED IN REMARKS
   TC - TEMPERATURE IN CELSIUS
  WCI - WIND CHILL INDEX
   HX - HEAT INDEX
  VSB - VISIBILITY




USA.gov is the U.S. government's official web portal to all federal, state and local government web resources and services.